| time (UTC) | temp C | wind direction | speed KPH | gust KPH | rain 1hr cm | rain 24hr cm | rain mn cm | humidity % | barometer mb |
| 20260508105020 | 6 | 188 | 0.0 | 0.0 | 0.00 | 0.25 | 0.00 | 50 | 1010.9 |
| 20260508104521 | 6 | 250 | 0.0 | 0.0 | 0.00 | 0.25 | 0.00 | 50 | 1011.0 |
| 20260508104019 | 6 | 282 | 0.0 | 0.0 | 0.00 | 0.25 | 0.00 | 50 | 1011.0 |
| 20260508103519 | 7 | 282 | 0.0 | 0.0 | 0.00 | 0.25 | 0.00 | 49 | 1011.0 |
| 20260508103018 | 7 | 282 | 0.0 | 0.0 | 0.00 | 0.25 | 0.00 | 49 | 1010.9 |
| 20260508102518 | 7 | 282 | 0.0 | 0.0 | 0.00 | 0.25 | 0.00 | 48 | 1011.0 |
| 20260508102018 | 7 | 282 | 0.0 | 0.0 | 0.00 | 0.25 | 0.00 | 48 | 1010.9 |
| 20260508101519 | 7 | 282 | 0.0 | 0.0 | 0.00 | 0.25 | 0.00 | 48 | 1010.9 |
| 20260508101017 | 7 | 282 | 0.0 | 0.0 | 0.00 | 0.25 | 0.00 | 47 | 1011.0 |
| 20260508100516 | 7 | 282 | 0.0 | 0.0 | 0.00 | 0.25 | 0.00 | 47 | 1011.0 |
| 20260508100016 | 7 | 282 | 0.0 | 0.0 | 0.00 | 0.25 | 0.00 | 47 | 1011.1 |
| 20260508095516 | 7 | 282 | 0.0 | 0.0 | 0.00 | 0.25 | 0.00 | 47 | 1011.1 |
| 20260508095018 | 7 | 282 | 0.0 | 0.0 | 0.00 | 0.25 | 0.00 | 47 | 1011.1 |
| 20260508094515 | 7 | 282 | 0.0 | 0.0 | 0.00 | 0.25 | 0.00 | 46 | 1011.2 |
| 20260508094018 | 7 | 282 | 0.0 | 0.0 | 0.00 | 0.25 | 0.00 | 46 | 1011.1 |
| 20260508093516 | 7 | 282 | 0.0 | 0.0 | 0.00 | 0.25 | 0.00 | 46 | 1011.2 |
| 20260508093014 | 7 | 282 | 0.0 | 0.0 | 0.00 | 0.25 | 0.00 | 46 | 1011.2 |
| 20260508092514 | 7 | 282 | 0.0 | 0.0 | 0.00 | 0.25 | 0.00 | 46 | 1011.2 |
| 20260508092012 | 7 | 312 | 0.0 | 4.8 | 0.00 | 0.25 | 0.00 | 45 | 1011.2 |
| 20260508091527 | 7 | 312 | 0.0 | 4.8 | 0.00 | 0.25 | 0.00 | 45 | 1011.3 |
| 20260508091011 | 7 | 164 | 0.0 | 0.0 | 0.00 | 0.25 | 0.00 | 45 | 1011.3 |
| 20260508090510 | 7 | 164 | 0.0 | 0.0 | 0.00 | 0.25 | 0.00 | 45 | 1011.4 |
| 20260508090014 | 7 | 164 | 0.0 | 0.0 | 0.00 | 0.25 | 0.00 | 45 | 1011.5 |
| 20260508085509 | 7 | 164 | 0.0 | 0.0 | 0.00 | 0.25 | 0.00 | 45 | 1011.5 |
| 20260508085014 | 7 | 164 | 0.0 | 0.0 | 0.00 | 0.25 | 0.00 | 45 | 1011.5 |
| 20260508084508 | 7 | 164 | 0.0 | 0.0 | 0.00 | 0.25 | 0.00 | 45 | 1011.5 |
| 20260508084012 | 7 | 164 | 0.0 | 0.0 | 0.00 | 0.25 | 0.00 | 44 | 1011.6 |
| 20260508083509 | 7 | 164 | 0.0 | 0.0 | 0.00 | 0.25 | 0.00 | 44 | 1011.5 |
| 20260508083016 | 7 | 164 | 0.0 | 0.0 | 0.00 | 0.25 | 0.00 | 44 | 1011.5 |
| 20260508082508 | 7 | 164 | 0.0 | 0.0 | 0.00 | 0.25 | 0.00 | 44 | 1011.5 |
| 20260508082007 | 7 | 164 | 0.0 | 0.0 | 0.00 | 0.25 | 0.00 | 44 | 1011.5 |
| 20260508081509 | 7 | 164 | 0.0 | 0.0 | 0.00 | 0.25 | 0.00 | 44 | 1011.5 |
| 20260508081005 | 7 | 164 | 0.0 | 0.0 | 0.00 | 0.25 | 0.00 | 44 | 1011.7 |
| 20260508080509 | 7 | 164 | 0.0 | 0.0 | 0.00 | 0.25 | 0.00 | 44 | 1011.7 |
| 20260508080005 | 7 | 164 | 0.0 | 0.0 | 0.00 | 0.25 | 0.00 | 44 | 1011.8 |
| 20260508075508 | 7 | 164 | 0.0 | 0.0 | 0.00 | 0.25 | 0.00 | 44 | 1011.8 |
| 20260508075007 | 7 | 164 | 0.0 | 0.0 | 0.00 | 0.25 | 0.00 | 44 | 1011.9 |
| 20260508074504 | 7 | 164 | 0.0 | 0.0 | 0.00 | 0.25 | 0.00 | 44 | 1012.0 |
| 20260508074004 | 7 | 164 | 0.0 | 0.0 | 0.00 | 0.25 | 0.00 | 44 | 1011.9 |
| 20260508073503 | 7 | 164 | 0.0 | 0.0 | 0.00 | 0.25 | 0.00 | 44 | 1011.9 |
| 20260508073002 | 7 | 164 | 0.0 | 0.0 | 0.00 | 0.25 | 0.00 | 45 | 1012.0 |
| 20260508072502 | 7 | 164 | 0.0 | 0.0 | 0.00 | 0.25 | 0.00 | 44 | 1012.0 |
| 20260508072002 | 7 | 164 | 0.0 | 0.0 | 0.00 | 0.25 | 0.00 | 44 | 1012.1 |
| 20260508071503 | 7 | 164 | 0.0 | 0.0 | 0.00 | 0.25 | 0.00 | 44 | 1012.2 |
| 20260508071102 | 7 | 164 | 0.0 | 0.0 | 0.00 | 0.25 | 0.00 | 44 | 1012.3 |
| 20260508070600 | 7 | 164 | 0.0 | 0.0 | 0.00 | 0.25 | 0.00 | 44 | 1012.3 |
| 20260508065600 | 7 | 164 | 0.0 | 0.0 | 0.00 | 0.25 | 0.00 | 46 | 1012.4 |
| 20260508065059 | 7 | 164 | 0.0 | 0.0 | 0.00 | 0.25 | 0.00 | 45 | 1012.4 |
| 20260508064558 | 7 | 164 | 0.0 | 0.0 | 0.00 | 0.25 | 0.00 | 44 | 1012.5 |
| 20260508064100 | 7 | 164 | 0.0 | 0.0 | 0.00 | 0.25 | 0.00 | 45 | 1012.5 |
| 20260508063557 | 8 | 164 | 0.0 | 0.0 | 0.00 | 0.25 | 0.00 | 45 | 1012.5 |
| 20260508063140 | 8 | 164 | 0.0 | 0.0 | 0.00 | 0.25 | 0.00 | 45 | 1012.5 |
| 20260508062555 | 8 | 164 | 0.0 | 0.0 | 0.00 | 0.25 | 0.00 | 45 | 1012.5 |
| 20260508062055 | 8 | 164 | 0.0 | 0.0 | 0.00 | 0.25 | 0.00 | 46 | 1012.4 |
| 20260508061555 | 8 | 164 | 0.0 | 0.0 | 0.00 | 0.25 | 0.00 | 45 | 1012.4 |
| 20260508061054 | 8 | 164 | 0.0 | 6.4 | 0.00 | 0.25 | 0.00 | 44 | 1012.3 |
| 20260508060553 | 8 | 164 | 0.0 | 6.4 | 0.00 | 0.25 | 0.00 | 45 | 1012.2 |
| 20260508060055 | 8 | 200 | 0.0 | 0.0 | 0.00 | 0.25 | 0.00 | 46 | 1012.3 |
| 20260508055551 | 8 | 200 | 0.0 | 0.0 | 0.00 | 0.25 | 0.25 | 46 | 1012.3 |
| 20260508055051 | 8 | 200 | 0.0 | 8.0 | 0.00 | 0.25 | 0.25 | 46 | 1012.3 |
| 20260508054551 | 8 | 200 | 0.0 | 8.0 | 0.00 | 0.25 | 0.25 | 44 | 1012.2 |
| 20260508054051 | 8 | 182 | 0.0 | 4.8 | 0.00 | 0.25 | 0.25 | 44 | 1012.2 |
| 20260508053550 | 8 | 182 | 0.0 | 4.8 | 0.00 | 0.25 | 0.25 | 46 | 1012.5 |
| 20260508053058 | 8 | 258 | 0.0 | 8.0 | 0.00 | 0.25 | 0.25 | 45 | 1012.4 |
| 20260508052551 | 8 | 261 | 0.0 | 8.0 | 0.00 | 0.25 | 0.25 | 45 | 1012.5 |
| 20260508052050 | 8 | 219 | 0.0 | 3.2 | 0.00 | 0.25 | 0.25 | 45 | 1012.6 |
| 20260508051615 | 8 | 219 | 0.0 | 6.4 | 0.00 | 0.25 | 0.25 | 46 | 1012.6 |
| 20260508051050 | 8 | 219 | 0.0 | 6.4 | 0.00 | 0.25 | 0.25 | 46 | 1012.7 |
| 20260508050550 | 8 | 223 | 0.0 | 17.7 | 0.00 | 0.25 | 0.25 | 46 | 1012.7 |
| 20260508050050 | 8 | 203 | 0.0 | 9.7 | 0.00 | 0.25 | 0.25 | 46 | 1012.8 |
| 20260508045549 | 9 | 265 | 1.6 | 9.7 | 0.00 | 0.25 | 0.25 | 48 | 1012.8 |
| 20260508045053 | 9 | 228 | 0.0 | 6.4 | 0.00 | 0.25 | 0.25 | 49 | 1012.9 |
| 20260508044550 | 9 | 246 | 0.0 | 6.4 | 0.00 | 0.25 | 0.25 | 49 | 1012.9 |
| 20260508044050 | 9 | 244 | 0.0 | 6.4 | 0.00 | 0.25 | 0.25 | 49 | 1012.9 |
| 20260508043548 | 9 | 277 | 0.0 | 0.0 | 0.00 | 0.25 | 0.25 | 49 | 1012.8 |
| 20260508043048 | 9 | 277 | 0.0 | 1.6 | 0.00 | 0.25 | 0.25 | 49 | 1012.8 |
| 20260508042548 | 9 | 277 | 0.0 | 8.0 | 0.00 | 0.25 | 0.25 | 49 | 1012.8 |
| 20260508042048 | 9 | 278 | 0.0 | 12.9 | 0.00 | 0.25 | 0.25 | 50 | 1012.8 |
| 20260508041548 | 9 | 281 | 0.0 | 12.9 | 0.00 | 0.25 | 0.25 | 49 | 1012.6 |
| 20260508041048 | 9 | 13 | 0.0 | 8.0 | 0.00 | 0.25 | 0.25 | 49 | 1012.7 |
| 20260508040548 | 9 | 33 | 1.6 | 11.3 | 0.00 | 0.25 | 0.25 | 50 | 1012.7 |
| 20260508040047 | 9 | 22 | 8.0 | 11.3 | 0.00 | 0.25 | 0.25 | 50 | 1012.7 |
| 20260508035547 | 9 | 14 | 1.6 | 11.3 | 0.00 | 0.25 | 0.25 | 48 | 1012.7 |
| 20260508035047 | 9 | 309 | 0.0 | 11.3 | 0.00 | 0.25 | 0.25 | 47 | 1012.7 |
| 20260508034546 | 10 | 15 | 1.6 | 9.7 | 0.00 | 0.25 | 0.25 | 46 | 1012.6 |
| 20260508034046 | 10 | 17 | 0.0 | 0.0 | 0.00 | 0.25 | 0.25 | 50 | 1012.6 |
| 20260508033546 | 10 | 304 | 0.0 | 0.0 | 0.00 | 0.25 | 0.25 | 49 | 1012.7 |
| 20260508033050 | 10 | 304 | 0.0 | 0.0 | 0.00 | 0.25 | 0.25 | 48 | 1012.5 |
| 20260508032546 | 10 | 304 | 0.0 | 0.0 | 0.00 | 0.25 | 0.25 | 47 | 1012.3 |
| 20260508032046 | 10 | 290 | 0.0 | 0.0 | 0.00 | 0.25 | 0.25 | 47 | 1012.4 |
| 20260508031544 | 10 | 279 | 0.0 | 11.3 | 0.00 | 0.25 | 0.25 | 47 | 1012.2 |
| 20260508031045 | 10 | 282 | 3.2 | 11.3 | 0.00 | 0.25 | 0.25 | 47 | 1012.1 |
| 20260508030545 | 10 | 49 | 0.0 | 0.0 | 0.00 | 0.25 | 0.25 | 47 | 1012.1 |
| 20260508030048 | 10 | 49 | 0.0 | 0.0 | 0.00 | 0.25 | 0.25 | 48 | 1012.1 |
| 20260508025544 | 10 | 49 | 0.0 | 0.0 | 0.00 | 0.25 | 0.25 | 48 | 1012.0 |
| 20260508025044 | 10 | 49 | 0.0 | 0.0 | 0.00 | 0.25 | 0.25 | 48 | 1011.9 |
| 20260508024544 | 10 | 49 | 0.0 | 0.0 | 0.00 | 0.25 | 0.25 | 48 | 1011.9 |
| 20260508024045 | 10 | 49 | 0.0 | 6.4 | 0.00 | 0.25 | 0.25 | 48 | 1011.9 |
| 20260508023545 | 10 | 49 | 0.0 | 9.7 | 0.00 | 0.25 | 0.25 | 48 | 1011.9 |
| 20260508023043 | 10 | 49 | 4.8 | 8.0 | 0.00 | 0.25 | 0.25 | 48 | 1011.8 |
| 20260508022543 | 10 | 49 | 0.0 | 0.0 | 0.00 | 0.25 | 0.25 | 48 | 1011.7 |
| 20260508022043 | 10 | 49 | 0.0 | 12.9 | 0.00 | 0.25 | 0.25 | 48 | 1011.8 |
| 20260508021550 | 10 | 49 | 4.8 | 12.9 | 0.00 | 0.25 | 0.25 | 48 | 1011.9 |
| 20260508021043 | 10 | 49 | 1.6 | 11.3 | 0.00 | 0.25 | 0.25 | 49 | 1011.8 |
| 20260508020543 | 11 | 360 | 0.0 | 8.0 | 0.00 | 0.25 | 0.25 | 46 | 1011.8 |
| 20260508020043 | 11 | 284 | 0.0 | 8.0 | 0.00 | 0.25 | 0.25 | 46 | 1011.9 |
| 20260508015542 | 11 | 278 | 0.0 | 8.0 | 0.00 | 0.25 | 0.25 | 47 | 1011.7 |
| 20260508015042 | 11 | 278 | 0.0 | 0.0 | 0.00 | 0.25 | 0.25 | 47 | 1011.7 |
| 20260508014543 | 11 | 278 | 0.0 | 6.4 | 0.00 | 0.25 | 0.25 | 47 | 1011.6 |
| 20260508014043 | 11 | 278 | 1.6 | 6.4 | 0.00 | 0.25 | 0.25 | 46 | 1011.5 |
| 20260508013541 | 11 | 278 | 0.0 | 9.7 | 0.00 | 0.25 | 0.25 | 47 | 1011.5 |
| 20260508013042 | 11 | 278 | 1.6 | 9.7 | 0.00 | 0.25 | 0.25 | 47 | 1011.5 |
| 20260508012541 | 11 | 286 | 0.0 | 0.0 | 0.00 | 0.25 | 0.25 | 47 | 1011.5 |
| 20260508012041 | 11 | 286 | 0.0 | 0.0 | 0.00 | 0.25 | 0.25 | 48 | 1011.6 |
| 20260508011547 | 11 | 286 | 0.0 | 0.0 | 0.00 | 0.25 | 0.25 | 48 | 1011.7 |
| 20260508011039 | 11 | 286 | 0.0 | 6.4 | 0.00 | 0.25 | 0.25 | 47 | 1011.8 |
| 20260508010539 | 11 | 286 | 0.0 | 6.4 | 0.00 | 0.25 | 0.25 | 48 | 1011.8 |
| 20260508010056 | 11 | 288 | 0.0 | 1.6 | 0.00 | 0.25 | 0.25 | 48 | 1011.8 |
| 20260508005539 | 11 | 288 | 0.0 | 0.0 | 0.00 | 0.25 | 0.25 | 48 | 1011.8 |
| 20260508005040 | 11 | 288 | 0.0 | 6.4 | 0.00 | 0.25 | 0.25 | 47 | 1011.8 |
| 20260508004539 | 11 | 286 | 0.0 | 6.4 | 0.00 | 0.25 | 0.25 | 47 | 1011.8 |
| 20260508004039 | 11 | 283 | 0.0 | 0.0 | 0.00 | 0.25 | 0.25 | 47 | 1011.9 |
| 20260508003537 | 11 | 283 | 0.0 | 0.0 | 0.00 | 0.25 | 0.25 | 46 | 1011.9 |
| 20260508003037 | 11 | 283 | 0.0 | 0.0 | 0.00 | 0.25 | 0.25 | 47 | 1011.8 |
| 20260508002536 | 12 | 283 | 0.0 | 9.7 | 0.00 | 0.25 | 0.25 | 48 | 1012.0 |
| 20260508002036 | 12 | 283 | 0.0 | 9.7 | 0.00 | 0.25 | 0.25 | 47 | 1012.1 |
| 20260508001536 | 12 | 200 | 0.0 | 0.0 | 0.00 | 0.25 | 0.25 | 48 | 1012.1 |
| 20260508001035 | 12 | 200 | 0.0 | 0.0 | 0.00 | 0.25 | 0.25 | 48 | 1012.2 |
| 20260508000535 | 12 | 191 | 0.0 | 11.3 | 0.00 | 0.25 | 0.25 | 48 | 1012.4 |
| 20260508000043 | 12 | 209 | 0.0 | 19.3 | 0.00 | 0.25 | 0.25 | 48 | 1012.4 |
| 20260507235536 | 12 | 195 | 3.2 | 19.3 | 0.00 | 0.25 | 0.25 | 48 | 1012.5 |
| 20260507235034 | 13 | 204 | 1.6 | 17.7 | 0.00 | 0.25 | 0.25 | 44 | 1012.4 |
| 20260507234534 | 13 | 218 | 1.6 | 14.5 | 0.00 | 0.25 | 0.25 | 44 | 1012.3 |
| 20260507234034 | 13 | 217 | 1.6 | 11.3 | 0.00 | 0.25 | 0.25 | 45 | 1012.3 |
| 20260507233534 | 13 | 194 | 0.0 | 11.3 | 0.00 | 0.25 | 0.25 | 43 | 1012.4 |
| 20260507233038 | 13 | 271 | 1.6 | 20.9 | 0.00 | 0.25 | 0.25 | 42 | 1012.4 |
| 20260507232533 | 13 | 267 | 3.2 | 30.6 | 0.00 | 0.25 | 0.25 | 42 | 1012.5 |
| 20260507232031 | 13 | 200 | 3.2 | 30.6 | 0.00 | 0.25 | 0.25 | 41 | 1012.4 |
| 20260507231531 | 13 | 226 | 4.8 | 30.6 | 0.00 | 0.25 | 0.25 | 40 | 1012.4 |
| 20260507231031 | 14 | 203 | 6.4 | 24.1 | 0.00 | 0.25 | 0.25 | 40 | 1012.5 |
| 20260507230532 | 14 | 241 | 4.8 | 14.5 | 0.00 | 0.25 | 0.25 | 40 | 1012.5 |
| 20260507230047 | 14 | 198 | 0.0 | 12.9 | 0.00 | 0.25 | 0.25 | 45 | 1012.4 |
| 20260507225531 | 14 | 263 | 1.6 | 9.7 | 0.00 | 0.25 | 0.25 | 45 | 1012.4 |
| 20260507225029 | 14 | 204 | 0.0 | 8.0 | 0.00 | 0.25 | 0.25 | 42 | 1012.4 |
| 20260507224533 | 14 | 240 | 0.0 | 6.4 | 0.00 | 0.25 | 0.25 | 43 | 1012.5 |
| 20260507224031 | 14 | 205 | 0.0 | 8.0 | 0.00 | 0.25 | 0.25 | 44 | 1012.5 |
| 20260507223532 | 15 | 197 | 0.0 | 9.7 | 0.00 | 0.25 | 0.25 | 40 | 1012.5 |
| 20260507223101 | 15 | 211 | 1.6 | 11.3 | 0.00 | 0.25 | 0.25 | 39 | 1012.7 |
| 20260507222528 | 16 | 209 | 1.6 | 16.1 | 0.00 | 0.25 | 0.25 | 43 | 1012.7 |
| 20260507222026 | 16 | 207 | 0.0 | 6.4 | 0.00 | 0.25 | 0.25 | 42 | 1013.0 |
| 20260507221525 | 16 | 206 | 0.0 | 11.3 | 0.00 | 0.25 | 0.25 | 43 | 1013.1 |
| 20260507221126 | 16 | 203 | 0.0 | 11.3 | 0.00 | 0.25 | 0.25 | 43 | 1013.2 |
| 20260507220523 | 15 | 200 | 0.0 | 12.9 | 0.00 | 0.25 | 0.25 | 42 | 1013.3 |
| 20260507220023 | 16 | 220 | 1.6 | 14.5 | 0.00 | 0.25 | 0.25 | 43 | 1013.4 |
| 20260507215523 | 16 | 259 | 1.6 | 12.9 | 0.00 | 0.46 | 0.25 | 39 | 1013.5 |
| 20260507215023 | 16 | 208 | 1.6 | 12.9 | 0.00 | 0.46 | 0.25 | 40 | 1013.7 |
| 20260507214522 | 16 | 192 | 0.0 | 11.3 | 0.00 | 0.46 | 0.25 | 39 | 1013.7 |
| 20260507214021 | 16 | 206 | 1.6 | 17.7 | 0.00 | 0.46 | 0.25 | 42 | 1013.9 |
| 20260507213520 | 16 | 205 | 4.8 | 19.3 | 0.00 | 0.46 | 0.25 | 42 | 1014.0 |
| 20260507213018 | 16 | 217 | 4.8 | 19.3 | 0.00 | 0.46 | 0.25 | 43 | 1014.0 |
| 20260507212516 | 16 | 191 | 1.6 | 17.7 | 0.00 | 0.46 | 0.25 | 42 | 1014.0 |
| 20260507212017 | 16 | 202 | 4.8 | 17.7 | 0.00 | 0.46 | 0.25 | 41 | 1014.1 |
| 20260507211515 | 15 | 227 | 1.6 | 14.5 | 0.00 | 0.46 | 0.25 | 43 | 1014.3 |
| 20260507211014 | 15 | 213 | 4.8 | 14.5 | 0.00 | 0.46 | 0.25 | 46 | 1014.3 |
| 20260507210518 | 15 | 202 | 1.6 | 14.5 | 0.00 | 0.46 | 0.25 | 42 | 1014.5 |
| 20260507210017 | 16 | 242 | 3.2 | 14.5 | 0.00 | 0.46 | 0.25 | 42 | 1014.5 |
| 20260507205512 | 15 | 207 | 1.6 | 17.7 | 0.00 | 0.71 | 0.25 | 45 | 1014.7 |
| 20260507205012 | 15 | 197 | 3.2 | 17.7 | 0.00 | 0.71 | 0.25 | 43 | 1014.9 |
| 20260507204509 | 15 | 198 | 1.6 | 19.3 | 0.00 | 0.71 | 0.25 | 42 | 1015.0 |
| 20260507204009 | 15 | 232 | 4.8 | 19.3 | 0.00 | 0.71 | 0.25 | 42 | 1015.0 |
| 20260507203508 | 15 | 227 | 4.8 | 16.1 | 0.00 | 0.71 | 0.25 | 43 | 1015.1 |
| 20260507203017 | 15 | 234 | 6.4 | 16.1 | 0.00 | 0.71 | 0.25 | 45 | 1015.2 |
| 20260507202505 | 15 | 219 | 0.0 | 24.1 | 0.00 | 0.71 | 0.25 | 44 | 1015.4 |
| 20260507202006 | 15 | 235 | 4.8 | 24.1 | 0.00 | 0.71 | 0.25 | 46 | 1015.5 |
| 20260507201504 | 14 | 205 | 0.0 | 9.7 | 0.00 | 0.71 | 0.25 | 46 | 1015.6 |
| 20260507201006 | 14 | 202 | 1.6 | 9.7 | 0.00 | 0.71 | 0.25 | 44 | 1015.8 |
| 20260507200501 | 14 | 216 | 1.6 | 16.1 | 0.00 | 0.71 | 0.25 | 46 | 1015.9 |
| 20260507200002 | 15 | 224 | 1.6 | 16.1 | 0.00 | 0.71 | 0.25 | 45 | 1016.1 |
| 20260507195501 | 15 | 232 | 4.8 | 22.5 | 0.00 | 0.94 | 0.25 | 44 | 1016.2 |
| 20260507195100 | 15 | 203 | 4.8 | 22.5 | 0.00 | 0.94 | 0.25 | 46 | 1016.2 |
| 20260507194559 | 15 | 256 | 9.7 | 22.5 | 0.00 | 0.94 | 0.25 | 42 | 1016.4 |
| 20260507194057 | 15 | 225 | 4.8 | 20.9 | 0.03 | 0.94 | 0.25 | 42 | 1016.6 |
| 20260507193556 | 15 | 252 | 0.0 | 20.9 | 0.05 | 0.94 | 0.25 | 48 | 1016.6 |
| 20260507193055 | 14 | 208 | 1.6 | 22.5 | 0.08 | 0.94 | 0.25 | 47 | 1016.7 |
| 20260507192553 | 14 | 245 | 3.2 | 17.7 | 0.10 | 0.94 | 0.25 | 46 | 1016.9 |
| 20260507192051 | 13 | 192 | 1.6 | 16.1 | 0.10 | 0.94 | 0.25 | 52 | 1017.0 |
| 20260507191552 | 12 | 298 | 6.4 | 27.4 | 0.13 | 0.94 | 0.25 | 49 | 1017.2 |
| 20260507191049 | 12 | 239 | 6.4 | 27.4 | 0.15 | 0.94 | 0.25 | 51 | 1017.2 |
| 20260507190548 | 11 | 38 | 1.6 | 16.1 | 0.18 | 0.94 | 0.25 | 49 | 1017.5 |
| 20260507190052 | 11 | 221 | 0.0 | 9.7 | 0.18 | 0.94 | 0.25 | 52 | 1017.6 |
| 20260507185546 | 11 | 208 | 1.6 | 11.3 | 0.20 | 1.17 | 0.25 | 48 | 1017.7 |
| 20260507185046 | 11 | 346 | 1.6 | 11.3 | 0.20 | 1.17 | 0.25 | 49 | 1017.8 |
| 20260507184545 | 11 | 360 | 3.2 | 11.3 | 0.23 | 1.17 | 0.25 | 51 | 1017.9 |
| 20260507184045 | 11 | 163 | 0.0 | 8.0 | 0.20 | 1.14 | 0.23 | 47 | 1017.9 |
| 20260507183548 | 11 | 277 | 0.0 | 8.0 | 0.20 | 1.12 | 0.20 | 51 | 1017.9 |
| 20260507183042 | 11 | 208 | 0.0 | 8.0 | 0.18 | 1.09 | 0.18 | 52 | 1018.1 |
| 20260507182540 | 10 | 317 | 0.0 | 9.7 | 0.15 | 1.07 | 0.15 | 47 | 1018.3 |
| 20260507182041 | 11 | 186 | 0.0 | 4.8 | 0.15 | 1.07 | 0.15 | 46 | 1018.4 |
| 20260507181539 | 11 | 247 | 0.0 | 16.1 | 0.13 | 1.04 | 0.13 | 48 | 1018.7 |
| 20260507181038 | 11 | 265 | 4.8 | 16.1 | 0.10 | 1.02 | 0.10 | 52 | 1018.7 |
| 20260507180537 | 11 | 196 | 0.0 | 4.8 | 0.08 | 0.99 | 0.08 | 53 | 1018.7 |
| 20260507180036 | 10 | 196 | 0.0 | 6.4 | 0.08 | 0.99 | 0.08 | 52 | 1018.9 |
| 20260507175534 | 10 | 196 | 0.0 | 6.4 | 0.05 | 1.22 | 0.05 | 50 | 1018.9 |
| 20260507175033 | 9 | 277 | 0.0 | 6.4 | 0.05 | 1.22 | 0.05 | 54 | 1019.0 |
| 20260507174537 | 8 | 296 | 0.0 | 4.8 | 0.03 | 1.19 | 0.03 | 58 | 1019.3 |
| 20260507174031 | 7 | 327 | 0.0 | 0.0 | 0.03 | 1.19 | 0.03 | 59 | 1019.3 |
| 20260507173528 | 6 | 327 | 0.0 | 8.0 | 0.00 | 1.17 | 0.00 | 55 | 1019.5 |
| 20260507173027 | 6 | 327 | 3.2 | 8.0 | 0.00 | 1.17 | 0.00 | 57 | 1019.5 |
| 20260507172527 | 6 | 325 | 0.0 | 0.0 | 0.00 | 1.17 | 0.00 | 57 | 1019.7 |
| 20260507172026 | 6 | 325 | 0.0 | 0.0 | 0.00 | 1.17 | 0.00 | 58 | 1019.6 |
| 20260507171524 | 6 | 325 | 0.0 | 1.6 | 0.00 | 1.17 | 0.00 | 61 | 1019.6 |
| 20260507171022 | 6 | 325 | 0.0 | 0.0 | 0.00 | 1.17 | 0.00 | 61 | 1019.8 |
| 20260507170522 | 5 | 325 | 0.0 | 0.0 | 0.00 | 1.17 | 0.00 | 60 | 1019.8 |
| 20260507170021 | 5 | 325 | 0.0 | 0.0 | 0.00 | 1.17 | 0.00 | 59 | 1019.8 |
| 20260507165518 | 5 | 325 | 0.0 | 4.8 | 0.00 | 1.32 | 0.00 | 61 | 1019.9 |
| 20260507165018 | 4 | 325 | 3.2 | 9.7 | 0.00 | 1.32 | 0.00 | 58 | 1019.9 |
| 20260507164517 | 4 | 325 | 1.6 | 9.7 | 0.00 | 1.32 | 0.00 | 62 | 1020.0 |
| 20260507164017 | 4 | 336 | 1.6 | 9.7 | 0.00 | 1.32 | 0.00 | 61 | 1020.1 |
| 20260507163516 | 4 | 347 | 3.2 | 9.7 | 0.00 | 1.32 | 0.00 | 62 | 1020.2 |
| 20260507163015 | 4 | 21 | 0.0 | 4.8 | 0.00 | 1.32 | 0.00 | 61 | 1020.2 |
| 20260507162514 | 4 | 21 | 0.0 | 4.8 | 0.00 | 1.32 | 0.00 | 61 | 1020.2 |
| 20260507162016 | 4 | 21 | 0.0 | 6.4 | 0.00 | 1.32 | 0.00 | 61 | 1020.3 |
| 20260507161513 | 3 | 21 | 1.6 | 6.4 | 0.00 | 1.32 | 0.00 | 59 | 1020.3 |
| 20260507161011 | 3 | 21 | 3.2 | 6.4 | 0.00 | 1.32 | 0.00 | 60 | 1020.3 |
| 20260507160511 | 3 | 21 | 3.2 | 6.4 | 0.00 | 1.32 | 0.00 | 60 | 1020.4 |
| 20260507160013 | 3 | 21 | 0.0 | 8.0 | 0.00 | 1.32 | 0.00 | 61 | 1020.5 |
| 20260507155509 | 3 | 21 | 3.2 | 8.0 | 0.00 | 1.32 | 0.00 | 60 | 1020.5 |
| 20260507155011 | 3 | 21 | 3.2 | 6.4 | 0.00 | 1.32 | 0.00 | 60 | 1020.6 |
| 20260507154508 | 3 | 21 | 1.6 | 6.4 | 0.00 | 1.32 | 0.00 | 60 | 1020.7 |
| 20260507154009 | 3 | 21 | 1.6 | 4.8 | 0.00 | 1.32 | 0.00 | 61 | 1020.7 |
| 20260507153508 | 3 | 21 | 1.6 | 4.8 | 0.00 | 1.32 | 0.00 | 61 | 1020.8 |
| 20260507153006 | 3 | 21 | 0.0 | 0.0 | 0.00 | 1.32 | 0.00 | 63 | 1020.8 |
| 20260507152505 | 2 | 21 | 0.0 | 4.8 | 0.00 | 1.32 | 0.00 | 60 | 1020.8 |
| 20260507152004 | 2 | 21 | 0.0 | 8.0 | 0.00 | 1.32 | 0.00 | 60 | 1020.9 |
| 20260507151504 | 2 | 20 | 3.2 | 8.0 | 0.00 | 1.32 | 0.00 | 62 | 1021.0 |
| 20260507151002 | 2 | 5 | 1.6 | 8.0 | 0.00 | 1.32 | 0.00 | 64 | 1021.0 |
| 20260507150502 | 1 | 12 | 3.2 | 9.7 | 0.00 | 1.32 | 0.00 | 64 | 1021.0 |
| 20260507150109 | 1 | 320 | 0.0 | 9.7 | 0.00 | 1.32 | 0.00 | 64 | 1021.2 |
| 20260507145558 | 0 | 11 | 1.6 | 8.0 | 0.00 | 1.32 | 0.00 | 68 | 1021.0 |
| 20260507145102 | 0 | 26 | 3.2 | 9.7 | 0.00 | 1.32 | 0.00 | 71 | 1020.9 |
| 20260507144556 | 0 | 26 | 4.8 | 9.7 | 0.00 | 1.32 | 0.00 | 69 | 1021.0 |
| 20260507144055 | 0 | 12 | 4.8 | 9.7 | 0.00 | 1.32 | 0.00 | 68 | 1021.0 |
| 20260507143555 | 0 | 62 | 0.0 | 0.0 | 0.00 | 1.32 | 0.00 | 67 | 1020.8 |
| 20260507143058 | 0 | 62 | 0.0 | 4.8 | 0.00 | 1.32 | 0.00 | 69 | 1020.6 |
| 20260507142553 | 0 | 62 | 1.6 | 4.8 | 0.00 | 1.32 | 0.00 | 70 | 1020.7 |
| 20260507142053 | 0 | 62 | 1.6 | 4.8 | 0.00 | 1.32 | 0.00 | 73 | 1020.9 |
| 20260507141553 | 0 | 62 | 0.0 | 0.0 | 0.00 | 1.32 | 0.00 | 72 | 1020.9 |
| 20260507141053 | -1 | 62 | 0.0 | 0.0 | 0.00 | 1.32 | 0.00 | 72 | 1020.8 |
| 20260507140552 | -1 | 62 | 0.0 | 0.0 | 0.00 | 1.32 | 0.00 | 72 | 1021.0 |
| 20260507140053 | -1 | 62 | 0.0 | 0.0 | 0.00 | 1.32 | 0.00 | 72 | 1021.0 |
| 20260507135556 | -1 | 62 | 0.0 | 0.0 | 0.00 | 1.32 | 0.00 | 72 | 1021.0 |
| 20260507135055 | -1 | 62 | 0.0 | 0.0 | 0.00 | 1.32 | 0.00 | 73 | 1021.0 |
| 20260507134558 | -1 | 62 | 0.0 | 0.0 | 0.00 | 1.32 | 0.00 | 74 | 1021.0 |
| 20260507134052 | -1 | 62 | 0.0 | 0.0 | 0.00 | 1.32 | 0.00 | 71 | 1020.8 |
| 20260507133549 | -1 | 62 | 0.0 | 0.0 | 0.00 | 1.32 | 0.00 | 70 | 1021.0 |
| 20260507133051 | -1 | 62 | 0.0 | 0.0 | 0.00 | 1.32 | 0.00 | 71 | 1021.0 |
| 20260507132549 | -1 | 62 | 0.0 | 0.0 | 0.00 | 1.32 | 0.00 | 71 | 1021.0 |
| 20260507132048 | -1 | 62 | 0.0 | 3.2 | 0.00 | 1.32 | 0.00 | 72 | 1021.0 |
| 20260507131547 | -1 | 62 | 0.0 | 3.2 | 0.00 | 1.32 | 0.00 | 72 | 1021.0 |
| 20260507131047 | -1 | 62 | 0.0 | 0.0 | 0.00 | 1.32 | 0.00 | 71 | 1021.2 |
| 20260507130546 | -1 | 62 | 0.0 | 0.0 | 0.00 | 1.32 | 0.00 | 70 | 1021.0 |
| 20260507130058 | -1 | 62 | 0.0 | 0.0 | 0.00 | 1.32 | 0.00 | 69 | 1020.9 |
| 20260507125546 | -1 | 62 | 0.0 | 6.4 | 0.00 | 1.32 | 0.00 | 70 | 1020.8 |
| 20260507125047 | -1 | 62 | 3.2 | 6.4 | 0.00 | 1.32 | 0.00 | 69 | 1020.9 |
| 20260507124604 | -1 | 62 | 0.0 | 0.0 | 0.00 | 1.32 | 0.00 | 70 | 1020.9 |
| 20260507124046 | -1 | 62 | 0.0 | 0.0 | 0.00 | 1.32 | 0.00 | 72 | 1020.8 |
| 20260507123546 | -1 | 62 | 0.0 | 0.0 | 0.00 | 1.32 | 0.00 | 72 | 1020.8 |
| 20260507123102 | -1 | 62 | 0.0 | 0.0 | 0.00 | 1.32 | 0.00 | 71 | 1020.8 |
| 20260507122543 | -1 | 62 | 0.0 | 0.0 | 0.00 | 1.32 | 0.00 | 70 | 1020.8 |
| 20260507122042 | -1 | 62 | 0.0 | 0.0 | 0.00 | 1.32 | 0.00 | 70 | 1020.8 |
| 20260507121552 | -1 | 62 | 0.0 | 0.0 | 0.00 | 1.32 | 0.00 | 70 | 1020.7 |
| 20260507121042 | -1 | 62 | 0.0 | 0.0 | 0.00 | 1.32 | 0.00 | 70 | 1020.7 |
| 20260507120545 | -1 | 62 | 0.0 | 0.0 | 0.00 | 1.32 | 0.00 | 70 | 1020.8 |
| 20260507120042 | -1 | 62 | 0.0 | 0.0 | 0.00 | 1.32 | 0.00 | 70 | 1020.8 |
| 20260507115540 | -1 | 62 | 0.0 | 0.0 | 0.00 | 1.32 | 0.00 | 71 | 1020.8 |
| 20260507115040 | -1 | 62 | 0.0 | 0.0 | 0.00 | 1.32 | 0.00 | 70 | 1020.9 |
| 20260507114539 | -1 | 62 | 0.0 | 0.0 | 0.00 | 1.32 | 0.00 | 69 | 1020.8 |
| 20260507114039 | -1 | 62 | 0.0 | 0.0 | 0.00 | 1.32 | 0.00 | 70 | 1020.9 |
| 20260507113543 | -1 | 62 | 0.0 | 0.0 | 0.00 | 1.32 | 0.00 | 71 | 1020.9 |
| 20260507113038 | -1 | 62 | 0.0 | 0.0 | 0.00 | 1.32 | 0.00 | 70 | 1021.0 |
| 20260507112540 | -1 | 62 | 0.0 | 0.0 | 0.00 | 1.32 | 0.00 | 68 | 1021.1 |
| 20260507112036 | -1 | 62 | 0.0 | 0.0 | 0.00 | 1.32 | 0.00 | 67 | 1021.0 |
| 20260507111536 | -1 | 62 | 0.0 | 0.0 | 0.00 | 1.32 | 0.00 | 67 | 1021.1 |
| 20260507111036 | -1 | 62 | 0.0 | 0.0 | 0.00 | 1.32 | 0.00 | 67 | 1021.2 |
| 20260507110536 | -1 | 62 | 0.0 | 0.0 | 0.00 | 1.32 | 0.00 | 67 | 1021.1 |
| 20260507110036 | -1 | 62 | 0.0 | 0.0 | 0.00 | 1.32 | 0.00 | 67 | 1021.0 |
| 20260507105535 | -1 | 62 | 0.0 | 0.0 | 0.00 | 1.32 | 0.00 | 67 | 1021.0 |